Tracking 21473 objects as of 18-Sep-2020
HD Live streaming from Space Station
objects crossing your sky now

USA 276

Track USA 276 now!
10-day predictions
USA 276 is classified as:


NORAD ID: 42689
Int'l Code: 2017-022A
Perigee: 393.4 km
Apogee: 402.0 km
Inclination: 50.0 °
Period: 92.4 minutes
Semi major axis: 6768 km
RCS: Unknown
Launch date: May 1, 2017
Source: United States (US)
Launch site: AIR FORCE EASTERN TEST RANGE (AFETR)
aabbcc
Your satellite tracking list
Your tracking list is empty




NASA's NSSDC Master Catalog

Two Line Element Set (TLE):
1 42689U 17022A   20251.28034100 0.00004300  00000-0  53947-4 0    01
2 42689  50.0049  42.7787 0006317 199.7951 225.2152 15.58995919    02
Source of the keplerian elements: McCants